This demonstration page uses our WeatherBlox Daily Observations layout. Learn more.

Left ArrowRight Arrow

39.29038, -76.61219

Hourly Observations for May 18, 2022

Temp ( °F °C ) Dew Point ( °F °C ) Humidity (%) Winds ( mph kmh ) Pressure ( in mb ) Visibility ( mi km ) Precip ( " mm )
12:54 am 00:54 Clear 64 17.8 42 5.6 45 45 NNW 6 9 29.95 1014 10 16 0.00 0.00
1:54 am 01:54 Mostly Clear 62 16.7 41 5 46 46 NNW 5 7 29.96 1015 10 16 0.00 0.00
2:54 am 02:54 Partly Cloudy 59 15 41 5 51 51 NW 6 9 29.97 1015 10 16 0.00 0.00
3:54 am 03:54 Mostly Cloudy 58 14.4 41 5 53 53 NW 5 7 29.99 1016 10 16 0.00 0.00
4:54 am 04:54 Partly Cloudy 56 13.3 41 5 57 57 Calm 30.00 1016 10 16 0.00 0.00
5:54 am 05:54 Partly Cloudy 53 11.7 41 5 64 64 Calm 30.01 1016 10 16 0.00 0.00
6:54 am 06:54 Mostly Sunny 55 12.8 41 5 59 59 NW 5 7 30.04 1017 10 16 0.00 0.00
7:54 am 07:54 Mostly Sunny 60 15.6 44 6.7 56 56 NW 5 7 30.06 1018 10 16 0.00 0.00
8:54 am 08:54 Partly Cloudy 63 17.2 42 5.6 47 47 VRB 7 11 30.07 1018 10 16 0.00 0.00
9:54 am 09:54 Mostly Cloudy 65 18.3 41 5 42 42 NW 5 7 30.06 1018 10 16 0.00 0.00
10:54 am 10:54 Mostly Cloudy 66 18.9 40 4.4 39 39 WSW 3 6 30.06 1018 10 16 0.00 0.00
11:54 am 11:54 Mostly Cloudy 68 20 41 5 38 38 NW 8 13 30.03 1017 10 16 0.00 0.00
12:54 pm 12:54 Mostly Cloudy 71 21.7 43 6.1 36 36 W 3 6 30.01 1016 10 16 0.00 0.00
1:54 pm 13:54 Mostly Cloudy 73 22.8 43 6.1 34 34 SW 9 15 29.99 1016 10 16 0.00 0.00
2:54 pm 14:54 Mostly Cloudy 73 22.8 43 6.1 34 34 W 6 9 29.98 1015 10 16 0.00 0.00
3:54 pm 15:54 Mostly Cloudy 72 22.2 44 6.7 37 37 W 9 15 29.96 1015 10 16 0.00 0.00
4:54 pm 16:54 Mostly Cloudy with Light Rain 69 20.6 47 8.3 45 45 WNW 5 7 29.94 1014 10 16 0.00 0.00
5:54 pm 17:54 Cloudy 71 21.7 45 7.2 39 39 Calm 29.92 1013 10 16 0.00 0.00
6:54 pm 18:54 Mostly Cloudy 69 20.6 50 10 51 51 SE 8 13 29.89 1012 10 16 0.00 0.00
7:54 pm 19:54 Mostly Cloudy 67 19.4 50 10 55 55 SSE 5 7 29.88 1012 10 16 0.00 0.00
8:54 pm 20:54 Mostly Cloudy 66 18.9 52 11.1 61 61 SE 5 7 29.87 1012 10 16 0.00 0.00
9:54 pm 21:54 Cloudy with Light Rain 65 18.3 55 12.8 70 70 SE 6 9 29.88 1012 10 16 0.00 0.00
10:54 pm 22:54 Cloudy with Light Rain 64 17.8 55 12.8 73 73 SE 5 7 29.86 1011 10 16 0.00 0.00
11:54 pm 23:54 Cloudy 65 18.3 56 13.3 73 73 ESE 7 11 29.83 1010 10 16 0.00 0.00

Powered by AerisWeather